SL-8 R/B

Satellite information

Favourite Embed

Satellite Type and Status

ROCKET BODYIN ORBIT

Key statistics

Satellite SL-8 R/B at a glance.

Uptime

10692

Days in orbit

Revolutions

≈ 13.8

Per day

Orbit

LEO

Low Earth Orbit

Inclination

82.9

Latest

Satellite identification and parameters

Extended collection of information and parameters for SL-8 R/B.

Object identification

Identified? True

Debris? False

Object name: SL-8 R/B

International designator: 1996-052C

Object number (NORAD): 24306

Object ID (CCSDS): 24306

Country: COMMONWEALTH OF INDEPENDENT STATES (CIS)

Current information (Y/N): Y

RCS size: LARGE

Orbital parameters

Period: 104.71 minutes

Inclination: 82.9344 deg

SMA: 7358.996 km

Apoapsis: 1000.334 km

Periapsis: 961.387 km

RAAN: 200.4815 deg

Eccentricy: 0.0026462

Argument of periapsis: 11.9301 deg

Mean anomaly: 348.2476 deg

Mean motion: 13.75228695 rev/day

Mean motion (dot): 0.00000144 rev/day2

B* drag term: 0.00013458306 1/REarth

Two-line elements (TLE)

Creation date: Dec. 14, 2025, 3:07 a.m.

Reference frame: TEME

Reference center: EARTH

Epoch: Dec. 13, 2025, 3:23 p.m. UTC

TLE line 0: 0 SL-8 R/B

TLE line 1: 1 24306U 96052C 25347.64129291 .00000144 00000-0 13458-3 0 9995

TLE line 2: 2 24306 82.9344 200.4815 0026462 11.9301 348.2476 13.75228695468709

Live tracking on map

Real-time ground track for satellite SL-8 R/B.

In-orbit conjunctions

A list of the most updated potential collisions computed for object SL-8 R/B.

Target Orbit TCA Probability of collision Miss distance Type
DELTA 1 DEB SSO 2024-10-21 14:08:57 0.000201138 230.0 (m) DEBRIS

Associated space launch

Navigation satellite providing location information for the Tsiklon-B navigation system

SL-8 R/B was lifted into orbit during the mission ‘Kosmos-3M | Parus 86’, on board a Kosmos-3M space rocket.

The launch took place on Sept. 5, 1996, 12:47 p.m. from 132/1 (132L).

For more information about the launch, click the button.

Launch to space Kosmos-3M | Parus 86
Kosmos-3M | Parus 86

Agency: N/A

Status: Launch Successful

Launch date: Sept. 5, 1996, 12:47 p.m. UTC

Rocket: Kosmos-3M

Launch pad: 132/1 (132L)

Location: Plesetsk Cosmodrome, Russian Federation

...

Latest news about this satellite

There are no fresh news available about this satellite. Check back as we update our databases every day.


Newsletter sign-up

Weekly statistics, charts and insights to help you stay on top of the space industry.